Flag for U.S.A. Weather past 2 weeks in Waterbury, Connecticut, U.S.A.

Now
63 °F

Overcast.


Feels Like: 63 °F
Forecast: 61 / 74 °F
Wind: 6 mph from Northeast

Location: Oxford

Current Time: Aug 23, 2014 at 3:49:03 AM

Latest Report: Aug 23, 2014 at 3:15 AM


Visibility: 10 mi

Pressure: 30.09 "Hg

Humidity: 77%

Dew point: 55 °F

Location of WaterburyLocation

Historic Weather in Waterbury — Graph

°F

Waterbury temperature yesterday

Maximum temperature yesterday: 72 °F (at 1:52 PM)
Minimum temperature yesterday: 63 °F (at 5:15 AM)
Average temperature yesterday: 66 °F

Past Weeks' High & Low Weather Summary

 TemperatureHumidityPressure
High82 °F (Aug 10, 1:45 PM)94% (Aug 20, 4:15 AM)30.19 "Hg (Aug 20, 4:15 AM)
Low52 °F (Aug 15, 5:15 AM)42% (Aug 10, 1:45 PM)29.68 "Hg (Aug 13, 1:45 PM)
Average65 °F72%30.02 "Hg
* Reported Aug 8 2:15 AM — Aug 23 2:35 AM, Waterbury, Weather by CustomWeather, © 2014

Note: Actual official high and low records may vary slightly from our data, if they occured in-between our weather recording intervals... More about our weather records

Advertising

Waterbury weather history for previous 24 hours

 ConditionsComfort  
Time TempWeatherWind HumidityBarometerVisibility
2:35 AM
Aug 23
63 °FOvercast.6 mph83%30.10 "Hg10 mi
1:55 AM63 °FMostly cloudy.6 mph83%30.10 "Hg10 mi
1:35 AM64 °FLow clouds.6 mph78%30.10 "Hg10 mi
1:15 AM64 °FOvercast.7 mph78%30.10 "Hg10 mi
12:55 AM64 °FOvercast.5 mph78%30.11 "Hg10 mi
12:35 AM64 °FOvercast.7 mph83%30.11 "Hg10 mi
12:15 AM64 °FOvercast.7 mph83%30.11 "Hg10 mi
11:55 PM
Aug 22
64 °FOvercast.7 mph83%30.11 "Hg10 mi
11:35 PM64 °FMostly cloudy.6 mph83%30.11 "Hg10 mi
11:15 PM64 °FOvercast.6 mph78%30.10 "Hg10 mi
10:55 PM64 °FOvercast.6 mph83%30.10 "Hg10 mi
10:35 PM64 °FOvercast.3 mph83%30.10 "Hg10 mi
10:15 PM64 °FMostly cloudy.6 mph83%30.10 "Hg10 mi
9:55 PM64 °FMostly cloudy.6 mph83%30.10 "Hg10 mi
9:35 PM66 °FMostly cloudy.5 mph73%30.10 "Hg10 mi
8:55 PM66 °FOvercast.6 mph78%30.10 "Hg10 mi
6:45 PM68 °FOvercast.3 mph69%30.09 "Hg10 mi
5:45 PM68 °FMostly cloudy.5 mph73%30.08 "Hg10 mi
4:45 PM70 °FMostly cloudy.7 mph64%30.07 "Hg10 mi
3:52 PM70 °FMostly cloudy.6 mph69%30.08 "Hg10 mi
2:54 PM72 °FMostly cloudy.7 mph61%30.08 "Hg10 mi
1:52 PM72 °FMore clouds than sun.5 mph61%30.09 "Hg10 mi
12:56 PM70 °FMore clouds than sun.5 mph64%30.09 "Hg10 mi
12:35 PM70 °FMostly cloudy.6 mph64%30.10 "Hg10 mi
12:15 PM70 °FMostly cloudy.5 mph64%30.10 "Hg10 mi
11:55 AM70 °FMostly cloudy.7 mph64%30.10 "Hg10 mi
11:35 AM68 °FOvercast.6 mph69%30.10 "Hg10 mi
11:15 AM68 °FOvercast.7 mph69%30.10 "Hg10 mi
10:55 AM68 °FOvercast.3 mph69%30.11 "Hg10 mi
10:35 AM66 °FOvercast.5 mph73%30.11 "Hg10 mi
10:15 AM66 °FOvercast.No wind73%30.10 "Hg10 mi
9:55 AM66 °FOvercast.5 mph73%30.10 "Hg10 mi
9:35 AM66 °FMostly cloudy.6 mph73%30.09 "Hg10 mi
9:15 AM66 °FOvercast.6 mph73%30.08 "Hg10 mi
8:55 AM64 °FOvercast.8 mph78%30.08 "Hg10 mi
8:35 AM64 °FOvercast.6 mph78%30.08 "Hg10 mi
7:55 AM64 °FOvercast.5 mph78%30.08 "Hg10 mi
7:35 AM63 °FOvercast.5 mph83%30.08 "Hg10 mi
7:15 AM63 °FMore clouds than sun.5 mph77%30.08 "Hg10 mi
6:55 AM63 °FPassing clouds.6 mph77%30.08 "Hg10 mi
6:35 AM63 °FOvercast.5 mph77%30.07 "Hg10 mi
6:15 AM63 °FOvercast.3 mph77%30.07 "Hg10 mi
5:55 AM63 °FOvercast.3 mph77%30.07 "Hg10 mi
5:35 AM63 °FOvercast.6 mph77%30.06 "Hg10 mi
5:15 AM63 °FMostly cloudy.6 mph83%30.07 "Hg10 mi
4:55 AM64 °FOvercast.7 mph78%30.06 "Hg10 mi
4:35 AM64 °FMostly cloudy.6 mph88%30.06 "Hg10 mi
4:15 AM64 °FMostly cloudy.3 mph88%30.06 "Hg10 mi
3:55 AM64 °FMostly cloudy.5 mph88%30.06 "Hg10 mi
3:35 AM64 °FOvercast.3 mph88%30.07 "Hg10 mi
3:15 AM64 °FMostly cloudy.No wind88%30.07 "Hg10 mi
Weather by CustomWeather, © 2014

See weather overviewHow to use our weather pages